Back to catalog

MIDAS 6

FTV 1169

AliveMilitaryPO
NORAD 574·PAYLOAD·🇺🇸 United States

Launched May 9, 1963 from Vandenberg Space Force Base

Loading…

Next Passes (next 24 hours)

TLE

FreshSource: Space-Track

Epoch: Sep 14, 2026, 05:08 UTC

1 00574U 63014A   26257.21440983 -.00000002  00000-0 -23202-2 0  9998
2 00574  87.3645 187.4070 0032060  26.0575 334.1886  8.65276991225481

Track MIDAS 6 in real time with AllMySat

Download on the App Store